Location: Newark
(35.2672°N, 80.7344°W)
Time: 20:34:14
(UTC+00:00)

A-11 Canister half - Pass Details

Date: 26 January 2020
Orbit: 1524 x 1684 km, 47.3° (Epoch: 26 February)

Event Time Altitude Azimuth Distance (km) Brightness Sun altitude
Rises 02:18:10 0° 292° (WNW) 4,711 12.3 -43.7°
Reaches altitude 10° 02:21:28 10° 300° (WNW) 3,745 11.5 -44.4°
Enters shadow 02:27:37 35° 334° (NNW) 2,339 10.0 -45.6°
